Location: Fours
(44.3167°N, 6.7000°E)
Time: 11:04:25
(UTC+00:00)

SKYMED 2 - Pass Details

Date: 16 October 2021
Orbit: 621 x 623 km, 97.9° (Epoch: 08 December)

Event Time Altitude Azimuth Distance (km) Brightness Sun altitude
Rises 17:50:58 0° 11° (N) 2,916 6.9 -12.1°
Reaches altitude 10° 17:53:10 10° 10° (N) 2,004 6.1 -12.5°
Maximum altitude 17:57:31 76° 285° (WNW) 647 3.8 -13.3°
Drops below altitude 10° 18:01:50 10° 200° (SSW) 1,988 6.4 -14.1°
Sets 18:04:01 0° 199° (SSW) 2,889 7.2 -14.5°
